TimeEET,TemperatureF,Dew PointF,Humidity,Sea Level PressureIn,VisibilityMPH,Wind Direction,Wind SpeedMPH,Gust SpeedMPH,PrecipitationIn,Events,Conditions,WindDirDegrees,DateUTC
12:20 AM,44.6,32.0,61,29.62,6.2,NNW,43.7,57.5,N/A,,Mostly Cloudy,340,2012-12-03 22:20:00
12:50 AM,44.6,32.0,61,29.62,6.2,NNW,46.0,57.5,N/A,,Mostly Cloudy,340,2012-12-03 22:50:00
1:20 AM,44.6,32.0,61,29.65,6.2,NNW,46.0,62.1,N/A,,Scattered Clouds,340,2012-12-03 23:20:00
1:50 AM,44.6,32.0,61,29.65,6.2,NNW,46.0,59.8,N/A,,Partly Cloudy,340,2012-12-03 23:50:00
2:00 AM,44,32,52,29.67,6,NNW,46.0,,,,Scattered Clouds,340,2012-12-04 00:00:00
2:20 AM,44.6,30.2,57,29.65,6.2,NNW,46.0,59.8,N/A,,Partly Cloudy,340,2012-12-04 00:20:00
2:50 AM,44.6,30.2,57,29.68,6.2,NNW,50.6,63.3,N/A,,Partly Cloudy,340,2012-12-04 00:50:00
3:20 AM,44.6,30.2,57,29.68,6.2,NNW,50.6,63.3,N/A,,Partly Cloudy,340,2012-12-04 01:20:00
3:50 AM,44.6,30.2,57,29.68,6.2,NNW,50.6,64.4,N/A,,Partly Cloudy,340,2012-12-04 01:50:00
4:20 AM,42.8,30.2,61,29.71,6.2,NNW,50.6,64.4,N/A,,Partly Cloudy,340,2012-12-04 02:20:00
4:50 AM,42.8,28.4,57,29.71,6.2,NNW,50.6,64.4,N/A,,Partly Cloudy,340,2012-12-04 02:50:00
5:20 AM,42.8,28.4,57,29.74,6.2,NNW,50.6,64.4,N/A,,Partly Cloudy,340,2012-12-04 03:20:00
5:50 AM,42.8,26.6,53,29.74,6.2,NNW,43.7,63.3,N/A,,Partly Cloudy,340,2012-12-04 03:50:00
6:20 AM,42.8,24.8,49,29.77,6.2,NNW,40.3,52.9,N/A,,Partly Cloudy,340,2012-12-04 04:20:00
6:50 AM,42.8,24.8,49,29.80,6.2,NNW,32.2,46.0,N/A,,Partly Cloudy,340,2012-12-04 04:50:00
7:20 AM,42.8,26.6,53,29.83,-9999.0,NNW,32.2,48.3,N/A,,Clear,340,2012-12-04 05:20:00
7:50 AM,42.8,26.6,53,29.80,-9999.0,NNW,39.1,51.8,N/A,,Clear,340,2012-12-04 05:50:00
8:00 AM,43,26,39,29.81,6,NNW,39.1,,,,,340,2012-12-04 06:00:00
8:20 AM,42.8,26.6,53,29.83,-9999.0,NNW,40.3,51.8,N/A,,Clear,340,2012-12-04 06:20:00
9:20 AM,42.8,26.6,53,29.86,-9999.0,NNW,29.9,41.4,N/A,,Clear,330,2012-12-04 07:20:00
9:50 AM,42.8,26.6,53,29.86,-9999.0,NNW,25.3,36.8,N/A,,Clear,340,2012-12-04 07:50:00
10:20 AM,44.6,24.8,46,29.86,-9999.0,NNW,25.3,36.8,N/A,,Clear,330,2012-12-04 08:20:00
10:50 AM,44.6,24.8,46,29.89,-9999.0,NNW,23.0,35.7,N/A,,Clear,340,2012-12-04 08:50:00
11:20 AM,44.6,24.8,46,29.89,-9999.0,NNW,19.6,31.1,N/A,,Clear,340,2012-12-04 09:20:00
11:50 AM,46.4,24.8,43,29.89,-9999.0,NNW,17.3,31.1,N/A,,Clear,340,2012-12-04 09:50:00
12:20 PM,46.4,21.2,37,29.86,-9999.0,NNW,17.3,32.2,N/A,,Clear,330,2012-12-04 10:20:00
12:50 PM,48.2,21.2,34,29.86,-9999.0,NNW,17.3,-,N/A,,Clear,330,2012-12-04 10:50:00
1:20 PM,50.0,23.0,35,29.86,-9999.0,NNW,11.5,23.0,N/A,,Clear,330,2012-12-04 11:20:00
1:50 PM,50.0,19.4,30,29.83,-9999.0,NNW,19.6,-,N/A,,Clear,330,2012-12-04 11:50:00
2:00 PM,50,19,17,29.85,6,NNW,19.6,,,,Scattered Clouds,330,2012-12-04 12:00:00
2:20 PM,50.0,24.8,37,29.83,-9999.0,NNW,21.9,-,N/A,,Clear,330,2012-12-04 12:20:00
2:50 PM,50.0,23.0,35,29.83,-9999.0,NW,18.4,-,N/A,,Clear,320,2012-12-04 12:50:00
3:20 PM,50.0,21.2,32,29.83,-9999.0,NW,15.0,-,N/A,,Clear,310,2012-12-04 13:20:00
3:50 PM,50.0,21.2,32,29.80,-9999.0,NNW,18.4,-,N/A,,Clear,330,2012-12-04 13:50:00
4:20 PM,50.0,19.4,30,29.80,-9999.0,NNW,15.0,-,N/A,,Clear,340,2012-12-04 14:20:00
4:50 PM,50.0,19.4,30,29.80,-9999.0,NNW,9.2,-,N/A,,Clear,340,2012-12-04 14:50:00
5:20 PM,48.2,19.4,32,29.80,6.2,NNW,6.9,-,N/A,,Scattered Clouds,340,2012-12-04 15:20:00
5:50 PM,46.4,19.4,34,29.80,6.2,Variable,3.5,-,N/A,,Scattered Clouds,0,2012-12-04 15:50:00
6:20 PM,41.0,19.4,42,29.80,6.2,Variable,3.5,-,N/A,,Partly Cloudy,0,2012-12-04 16:20:00
6:50 PM,41.0,21.2,45,29.80,6.2,Variable,3.5,-,N/A,,Partly Cloudy,0,2012-12-04 16:50:00
7:20 PM,37.4,24.8,60,29.83,-9999.0,Variable,3.5,-,N/A,,Clear,0,2012-12-04 17:20:00
7:50 PM,37.4,26.6,65,29.83,-9999.0,SE,4.6,-,N/A,,Clear,130,2012-12-04 17:50:00
8:00 PM,37,26,53,29.83,6,SE,4.6,,,,Clear,130,2012-12-04 18:00:00
8:20 PM,37.4,24.8,60,29.83,6.2,Variable,2.3,-,N/A,,Partly Cloudy,0,2012-12-04 18:20:00
8:50 PM,35.6,24.8,65,29.83,6.2,ESE,4.6,-,N/A,,Partly Cloudy,110,2012-12-04 18:50:00
9:20 PM,35.6,24.8,65,29.83,6.2,East,5.8,-,N/A,,Partly Cloudy,100,2012-12-04 19:20:00
9:50 PM,35.6,24.8,65,29.83,6.2,ESE,8.1,-,N/A,,Partly Cloudy,110,2012-12-04 19:50:00
10:20 PM,37.4,23.0,56,29.80,6.2,SE,6.9,-,N/A,,Partly Cloudy,130,2012-12-04 20:20:00
10:50 PM,37.4,21.2,52,29.80,-9999.0,SSE,5.8,-,N/A,,Clear,150,2012-12-04 20:50:00
11:20 PM,35.6,24.8,65,29.80,-9999.0,East,5.8,-,N/A,,Clear,100,2012-12-04 21:20:00
11:50 PM,37.4,23.0,56,29.80,6.2,Variable,2.3,-,N/A,,Partly Cloudy,0,2012-12-04 21:50:00